Location: Chevoux
(46.3801°N, 4.9476°E)
Time: 11:14:55
(UTC+00:00)

Feng Yun 1-1 Rocket - Pass Details

Date: 28 January 2021
Orbit: 830 x 933 km, 99.2° (Epoch: 06 March)

Event Time Altitude Azimuth Distance (km) Brightness Sun altitude
Rises 17:27:55 0° 155° (SSE) 3,388 7.3 -8.7°
Reaches altitude 10° 17:30:15 10° 153° (SSE) 2,468 6.5 -9.1°
Maximum altitude 17:35:41 68° 71° (ENE) 928 4.2 -10.0°
Drops below altitude 10° 17:41:18 10° 350° (N) 2,549 6.7 -10.9°
Sets 17:43:45 0° 348° (NNW) 3,508 7.4 -11.3°
